Weather in Barashkovo

Russia / Kurgan Oblast     55°29′41″N   65°46′25″E
temp.,
°C
wind,
m/s
gust,
m/s
humid.,
%
clouds,
%
prec.,
mm/h
press.,
hPa
HPBL,
m
19 april, mon
mon1923:00−3nne611410 0.0 10291132
02:00−5nne610420 0.0 10311014
05:00−6nne58460 0.0 1033941
08:00−5nne56390 0.0 10341082
11:00−2nne56305 0.0 10341624
14:00+1n462796 0.0 10332158
17:00+1nne5728100 0.0 10322215
20:00−2ne224382 0.0 103317
20 april, tue
tue2023:00−3ne22485 0.0 103318
02:00−4ene22520 0.0 103441
05:00−4ene11490 0.0 103412
08:00−1nnw22355 0.0 1034452
11:00+2nw33277 0.0 10331276
14:00+5wnw35275 0.0 10311628
17:00+6wnw56314 0.0 10291727
20:00+3wsw34470 0.0 102858
21 april, wed
wed2123:00+1wsw36598 0.0 102899
02:000w35640 0.0 102778
05:000wnw35734 0.0 102880
08:00+4nnw47625 0.0 1029326
11:00+9nnw56537 0.0 10301238
14:00+10n5547100 0.0 10301816
17:00+9nne455190 0.0 1032967
20:00+6ne34615 0.0 103444
22 april, thu
thu2223:00+4ene33684 0.0 103539
02:00+2se35644 0.0 103684
05:00+1sse35684 0.0 103886
08:00+5sse46553 0.0 1039308
11:00+9sse56426 0.0 10391052
14:00+12sse553733 0.0 10381556
17:00+12s563599 0.0 10371575
20:00+9se41046100 0.0 1038226
23 april, fri
fri2323:00+7sse61250100 0.0 1038308
02:00+5sse51253100 0.0 1037262
05:00+4sse4106375 0.0 1037172
08:00+8s5105391 0.0 1037363
11:00+12s6738100 0.0 1036972
14:00+14s6732100 0.0 10351716
17:00+13s6632100 0.0 10341649
20:00+9sse484362 0.0 1034156